Simultaneous Nadir Overpasses (SNOs) Predictions

Prediction of SNOs between GOES-16 and LANDSAT-8 Satellite Orbit:

Table of predicted SNOs for the next 14.0 days since TLE Epoch: 4/20/2024
Index Date Time (GOES-16) GOES-16 Lat,Lon LANDSAT-8 Lat,Lon Distance(km) Time Diff (sec)
1 04/20/2024 15:02:31 0.03, -75.21 -0.56, -72.44 314.31 80
2 04/21/2024 03:23:55 -0.03, -75.20 -0.57, -77.63 277.08 80
3 04/23/2024 03:09:04 -0.03, -75.21 0.07, -74.68 59.38 80
4 04/25/2024 02:56:52 -0.03, -75.22 0.69, -71.73 396.32 80
5 04/25/2024 15:18:08 0.03, -75.23 0.36, -76.89 189.03 80
6 04/27/2024 15:08:35 0.02, -75.24 -0.25, -73.93 148.28 80
7 04/28/2024 03:29:59 -0.02, -75.24 -0.84, -79.13 442.50 80
8 04/29/2024 14:56:22 0.01, -75.25 -0.90, -70.98 485.96 80
9 04/30/2024 03:17:45 -0.01, -75.25 -0.23, -76.16 104.71 80
10 05/02/2024 03:02:51 -0.00, -75.27 0.41, -73.20 234.09 80
11 05/02/2024 15:24:06 0.00, -75.28 0.67, -78.36 350.85 80
